Home > Weather > Pickering > Past weeks

Flag for Canada Past Weather in Pickering, Ontario, Canada — Yesterday and Last 2 Weeks

Now
72 °F

Passing clouds.


Feels Like: 77 °F
Forecast: 56 / 83 °F
Wind: 7 mph from Southeast

Location: Toronto Buttonville

Current Time: Jun 24, 2016 at 9:39:19 PM

Latest Report: Jun 24, 2016 at 9:00 PM


Visibility: 15 mi

Pressure: 30.08 "Hg

Humidity: 44%

Dew Point: 48 °F

Location of PickeringLocation

Past Weather in Pickering — Graph

°F

Pickering Temperature Yesterday

Maximum temperature yesterday: 73 °F (at 1:00 PM)
Minimum temperature yesterday: 54 °F (at 2:00 AM)
Average temperature yesterday: 65 °F

High & Low Weather Summary for the Past Weeks

 TemperatureHumidityPressure
High91 °F (Jun 20, 4:00 PM)100% (Jun 11, 6:00 AM)30.27 "Hg (Jun 11, 6:00 AM)
Low46 °F (Jun 14, 6:00 AM)23% (Jun 10, 3:00 PM)29.70 "Hg (Jun 11, 9:00 PM)
Average68 °F50%29.97 "Hg
* Reported Jun 9 7:00 PM — Jun 24 7:00 PM, Pickering, Weather by CustomWeather, © 2016

Note: Actual official high and low records may vary slightly from our data, if they occured in-between our weather recording intervals... More about our weather records

Advertising

Pickering Weather History for the Previous 24 Hours

Scroll right to see more
 ConditionsComfort  
Time TempWeatherWind HumidityBarometerVisibility
7:00 PM
Fri, Jun 24
79 °FPassing clouds.8 mph32%30.07 "Hg15 mi
6:00 PM79 °FPassing clouds.7 mph32%30.08 "Hg15 mi
5:00 PM79 °FPassing clouds.9 mph37%30.08 "Hg15 mi
4:00 PM79 °FPassing clouds.12 mph34%30.08 "Hg15 mi
3:00 PM79 °FPassing clouds.6 mph34%30.08 "Hg15 mi
2:00 PM77 °FPassing clouds.6 mph36%30.07 "Hg15 mi
1:00 PM79 °FPassing clouds.9 mph37%30.09 "Hg15 mi
12:00 PM77 °FPassing clouds.No wind36%30.09 "Hg15 mi
11:00 AM75 °FPassing clouds.3 mph41%30.09 "Hg15 mi
10:00 AM73 °FSunny.6 mph50%30.09 "Hg15 mi
9:00 AM70 °FPassing clouds.6 mph53%30.08 "Hg15 mi
8:00 AM66 °FPassing clouds.7 mph60%30.07 "Hg15 mi
7:00 AM61 °FPassing clouds.7 mph68%30.06 "Hg15 mi
6:00 AM59 °FClear.7 mph63%30.03 "Hg15 mi
5:00 AM57 °FClear.7 mph67%30.01 "Hg15 mi
4:00 AM59 °FClear.8 mph59%30.01 "Hg15 mi
3:00 AM59 °FClear.8 mph63%30.00 "Hg15 mi
2:00 AM59 °FClear.8 mph63%29.99 "Hg15 mi
1:00 AM59 °FClear.6 mph68%29.99 "Hg15 mi
12:00 AM63 °FClear.5 mph56%29.99 "Hg15 mi
11:00 PM
Thu, Jun 23
64 °FClear.2 mph56%29.99 "Hg15 mi
10:00 PM66 °FSunny.5 mph52%29.98 "Hg15 mi
9:00 PM70 °FPassing clouds.5 mph43%29.93 "Hg15 mi
Weather by CustomWeather, © 2016

See weather overviewHow to use our weather pages